EW7423 Weather Reports


Display with metric or nautical units.
time (UTC)temp
F
wind
direction
speed
MPH
gust
MPH
rain 1hr
in
rain 24hr
in
rain mn
in
humidity
%
barometer
mb
20210622175812 72 0 1.0 3.0 0.00 0.00 0.00 98 1017.5
20210622175311 72 0 1.0 3.0 0.00 0.00 0.00 98 1017.8
20210622174814 72 0 1.0 3.0 0.00 0.00 0.00 98 1018.0
20210622174310 72 0 1.0 3.0 0.00 0.00 0.00 98 1017.8
20210622173812 72 20 1.0 3.0 0.00 0.00 0.00 98 1017.7
20210622173310 72 34 1.0 3.0 0.00 0.00 0.00 98 1018.1
20210622172812 72 0 1.0 3.0 0.00 0.00 0.00 98 1017.8
20210622172310 72 0 1.0 3.0 0.00 0.00 0.00 98 1018.0
20210622171812 72 33 1.0 3.0 0.00 0.00 0.00 98 1018.0
20210622171311 72 0 1.0 3.0 0.00 0.00 0.00 98 1018.3
20210622170811 72 0 1.0 4.0 0.00 0.00 0.00 98 1018.2
20210622170312 72 0 1.0 6.0 0.00 0.00 0.00 98 1018.0
20210622165813 72 0 1.0 6.0 0.00 0.00 0.00 98 1018.2
20210622165311 73 0 2.0 6.0 0.00 0.00 0.00 98 1017.9
20210622164810 73 0 2.0 6.0 0.00 0.00 0.00 97 1017.4
20210622164313 73 164 3.0 11.0 0.00 0.00 0.00 97 1017.9
20210622163810 73 194 3.0 11.0 0.00 0.00 0.00 97 1017.7
20210622163311 74 342 4.0 11.0 0.00 0.00 0.00 97 1017.4
20210622162810 74 306 5.0 11.0 0.00 0.00 0.00 98 1017.2
20210622162313 74 338 3.0 11.0 0.00 0.00 0.00 98 1017.1
20210622161813 75 344 2.0 4.0 0.00 0.00 0.00 98 1017.2
20210622161313 75 141 1.0 4.0 0.00 0.00 0.00 98 1016.8
20210622160813 75 315 1.0 4.0 0.00 0.00 0.00 98 1016.6
20210622160310 75 346 0.0 1.0 0.00 0.00 0.00 98 1016.7
20210622155814 75 346 0.0 2.0 0.00 0.00 0.00 98 1016.4
20210622155311 75 346 1.0 4.0 0.00 0.00 0.00 98 1016.6
20210622154811 75 346 1.0 4.0 0.00 0.00 0.00 98 1016.5
20210622154310 76 348 1.0 4.0 0.00 0.00 0.00 98 1016.5
20210622153813 76 297 1.0 2.0 0.00 0.00 0.00 98 1016.7
20210622153314 76 293 1.0 2.0 0.00 0.00 0.00 98 1016.5
20210622152811 76 317 1.0 3.0 0.00 0.00 0.00 98 1016.4
20210622152305 76 317 1.0 3.0 0.00 0.00 0.00 98 1016.4
20210622151800 76 206 0.0 2.0 0.00 0.00 0.00 98 1016.5
20210622151252 75 205 0.0 2.0 0.00 0.00 0.00 98 1016.5
20210622150749 75 204 1.0 5.0 0.00 0.00 0.00 97 1016.4
20210622150243 75 204 2.0 5.0 0.00 0.00 0.00 97 1016.4
20210622145736 76 173 2.0 11.0 0.00 0.00 0.00 95 1016.3
20210622145231 77 185 2.0 11.0 0.00 0.00 0.00 94 1016.6
20210622144724 78 278 1.0 4.0 0.00 0.00 0.00 96 1016.8
20210622144217 79 263 1.0 4.0 0.00 0.00 0.00 97 1016.9
20210622143710 79 265 1.0 4.0 0.00 0.00 0.00 98 1016.8
20210622143204 79 219 1.0 3.0 0.00 0.00 0.00 98 1016.6
20210622142659 78 34 1.0 3.0 0.00 0.00 0.00 99 1016.5
20210622142152 78 228 1.0 5.0 0.00 0.00 0.00 99 1016.7
20210622141646 78 66 1.0 7.0 0.00 0.00 0.00 99 1016.9
20210622141141 78 214 0.0 6.0 0.00 0.00 0.00 99 1017.0
20210622140634 77 164 0.0 2.0 0.00 0.00 0.00 99 1017.1
20210622140128 77 186 0.0 2.0 0.00 0.00 0.00 99 1017.0
20210622135625 77 215 0.0 2.0 0.00 0.00 0.00 99 1017.0
20210622135120 76 215 1.0 3.0 0.00 0.00 0.00 99 1017.0
20210622134610 76 214 0.0 3.0 0.00 0.00 0.00 99 1017.0
20210622134109 76 216 0.0 2.0 0.00 0.00 0.00 99 1017.1
20210622133558 76 34 1.0 2.0 0.00 0.00 0.00 99 1017.1
20210622133052 76 212 1.0 3.0 0.00 0.00 0.00 100 1017.1
20210622132547 76 213 1.0 3.0 0.00 0.00 0.00 99 1017.0
20210622132041 76 198 1.0 2.0 0.00 0.00 0.00 99 1017.0
20210622131536 75 59 0.0 2.0 0.00 0.00 0.00 100 1017.0
20210622131029 75 217 0.0 4.0 0.00 0.00 0.00 99 1017.0
20210622130524 75 217 0.0 4.0 0.00 0.00 0.00 99 1016.9
20210622130018 74 306 0.0 2.0 0.00 0.00 0.00 100 1016.8
20210622125512 74 309 0.0 2.0 0.00 0.00 0.00 99 1016.7
20210622125006 74 30 0.0 2.0 0.00 0.00 0.00 99 1016.6
20210622124500 74 228 0.0 2.0 0.00 0.00 0.00 99 1016.8
20210622123954 74 239 0.0 2.0 0.00 0.00 0.00 99 1016.8
20210622123448 74 246 0.0 1.0 0.00 0.00 0.00 99 1016.9
20210622122942 74 246 0.0 2.0 0.00 0.00 0.00 99 1016.7
20210622122436 73 246 0.0 2.0 0.00 0.00 0.00 99 1016.7
20210622121930 73 246 0.0 2.0 0.00 0.00 0.00 99 1016.6
20210622121426 73 247 0.0 2.0 0.00 0.00 0.00 99 1016.5
20210622120919 73 237 0.0 2.0 0.00 0.00 0.00 99 1016.4
20210622120414 73 240 0.0 4.0 0.00 0.00 0.00 99 1016.1
20210622115906 73 238 0.0 4.0 0.00 0.00 0.00 99 1016.2
20210622115359 72 217 0.0 1.0 0.00 0.00 0.00 99 1016.2
20210622114853 72 217 0.0 0.0 0.00 0.00 0.00 99 1016.1
20210622114347 72 217 0.0 0.0 0.00 0.00 0.00 99 1016.1
20210622113841 72 217 0.0 0.0 0.00 0.00 0.00 99 1016.0
20210622113335 72 217 0.0 0.0 0.00 0.00 0.00 99 1016.0
20210622112829 72 217 0.0 0.0 0.00 0.00 0.00 99 1015.8
20210622112325 71 217 0.0 0.0 0.00 0.00 0.00 99 1015.8
20210622111818 71 217 0.0 0.0 0.00 0.00 0.00 99 1015.7
20210622111313 71 217 0.0 0.0 0.00 0.00 0.00 99 1015.7
20210622110806 71 217 0.0 0.0 0.00 0.00 0.00 99 1015.8
20210622110308 71 217 0.0 0.0 0.00 0.00 0.00 99 1015.8
20210622105753 71 217 0.0 0.0 0.00 0.00 0.00 99 1015.9
20210622105247 71 217 0.0 0.0 0.00 0.00 0.00 99 1016.0
20210622104742 71 217 0.0 0.0 0.00 0.00 0.00 99 1015.9
20210622104240 71 217 0.0 0.0 0.00 0.00 0.00 99 1016.0
20210622103742 71 217 0.0 0.0 0.00 0.00 0.00 99 1016.1
20210622103239 71 217 0.0 0.0 0.00 0.00 0.00 99 1016.1
20210622102744 71 217 0.0 0.0 0.00 0.00 0.00 99 1016.2
20210622102240 71 217 0.0 0.0 0.00 0.00 0.00 99 1016.2
20210622101740 71 217 0.0 0.0 0.00 0.00 0.00 99 1016.1
20210622101238 71 217 0.0 0.0 0.00 0.00 0.00 99 1016.1
20210622100739 71 217 0.0 0.0 0.00 0.00 0.00 99 1016.0
20210622100236 71 217 0.0 0.0 0.00 0.00 0.00 99 1016.0
20210622095737 71 217 0.0 0.0 0.00 0.00 0.00 99 1016.1
20210622095236 71 217 0.0 0.0 0.00 0.00 0.00 99 1016.1
20210622094734 71 217 0.0 0.0 0.00 0.00 0.00 99 1016.1
20210622094232 71 217 0.0 0.0 0.00 0.00 0.00 99 1016.0
20210622093731 71 217 0.0 0.0 0.00 0.00 0.00 99 1016.0
20210622093228 71 217 0.0 0.0 0.00 0.00 0.00 99 1016.1
20210622092728 71 217 0.0 0.0 0.00 0.00 0.00 99 1016.1
20210622092225 71 217 0.0 0.0 0.00 0.00 0.00 99 1016.1
20210622091722 71 217 0.0 0.0 0.00 0.00 0.00 99 1016.2
20210622091223 71 217 0.0 0.0 0.00 0.00 0.00 99 1016.3
20210622090717 71 217 0.0 0.0 0.00 0.00 0.00 99 1016.3
20210622090212 71 217 0.0 0.0 0.00 0.00 0.00 99 1016.2
20210622085705 71 217 0.0 0.0 0.00 0.00 0.00 99 1016.3
20210622085159 71 217 0.0 0.0 0.00 0.00 0.00 99 1016.3
20210622084653 71 217 0.0 0.0 0.00 0.00 0.00 99 1016.3
20210622084147 71 217 0.0 0.0 0.00 0.00 0.00 99 1016.3
20210622083641 72 217 0.0 0.0 0.00 0.00 0.00 99 1016.2
20210622083136 72 217 0.0 0.0 0.00 0.00 0.00 99 1016.2
20210622082632 72 217 0.0 0.0 0.00 0.00 0.00 99 1016.2
20210622082130 72 217 0.0 0.0 0.00 0.00 0.00 99 1016.2
20210622081629 72 217 0.0 0.0 0.00 0.00 0.00 99 1016.3
20210622081132 72 217 0.0 0.0 0.00 0.00 0.00 99 1016.3
20210622080627 72 217 0.0 0.0 0.00 0.00 0.00 99 1016.4
20210622080125 72 217 0.0 0.0 0.00 0.00 0.00 99 1016.4
20210622075625 72 217 0.0 0.0 0.00 0.00 0.00 99 1016.3
20210622075127 72 217 0.0 2.0 0.00 0.00 0.00 99 1016.3
20210622074623 72 217 0.0 2.0 0.00 0.00 0.00 99 1016.3
20210622074122 72 217 0.0 1.0 0.00 0.00 0.00 99 1016.2
20210622073620 72 217 0.0 1.0 0.00 0.00 0.00 99 1015.9
20210622073121 72 217 0.0 2.0 0.00 0.00 0.00 99 1015.7
20210622072620 72 217 0.0 2.0 0.00 0.00 0.00 99 1016.0
20210622072118 72 213 1.0 4.0 0.00 0.00 0.00 99 1016.1
20210622071615 72 212 1.0 4.0 0.00 0.00 0.00 99 1016.2
20210622071117 72 171 0.0 3.0 0.00 0.00 0.00 99 1016.1
20210622070616 72 178 0.0 2.0 0.00 0.00 0.00 99 1015.8
20210622070116 72 104 0.0 2.0 0.00 0.00 0.00 99 1016.1
20210622065617 72 83 0.0 1.0 0.00 0.00 0.00 99 1016.4
20210622065112 72 83 0.0 3.0 0.00 0.00 0.00 99 1016.6
20210622064608 72 83 0.0 3.0 0.00 0.00 0.00 99 1016.7
20210622064100 72 53 0.0 2.0 0.00 0.00 0.00 99 1016.8
20210622063555 72 53 1.0 2.0 0.00 0.00 0.00 99 1016.9
20210622063053 72 204 0.0 2.0 0.00 0.00 0.00 99 1016.9
20210622062555 72 221 0.0 2.0 0.00 0.00 0.00 99 1017.0
20210622062051 72 76 1.0 3.0 0.00 0.00 0.00 99 1017.0
20210622061552 72 122 1.0 3.0 0.00 0.00 0.00 99 1017.0
20210622061051 72 59 1.0 3.0 0.00 0.00 0.00 99 1016.9
20210622060552 72 148 1.0 4.0 0.00 0.00 0.00 99 1016.7
20210622060102 72 310 1.0 4.0 0.00 0.00 0.00 99 1016.8
20210622055549 72 205 1.0 4.0 0.00 0.00 0.00 99 1016.9
20210622055050 72 225 1.0 4.0 0.00 0.00 0.00 99 1017.1
20210622054550 72 241 1.0 4.0 0.00 0.00 0.00 99 1017.3
20210622054048 72 193 1.0 7.0 0.00 0.00 0.00 99 1017.4
20210622053547 72 234 1.0 7.0 0.00 0.00 0.00 99 1017.3
20210622053050 72 116 1.0 4.0 0.00 0.00 0.00 99 1017.2
20210622052546 72 255 1.0 4.0 0.00 0.00 0.00 99 1017.4
20210622052046 72 203 0.0 1.0 0.00 0.00 0.00 99 1017.7
20210622051547 72 204 0.0 3.0 0.00 0.00 0.00 99 1017.8
20210622051046 72 205 0.0 3.0 0.00 0.00 0.00 99 1018.1
20210622050546 72 213 0.0 3.0 0.00 0.00 0.00 99 1018.2
20210622050058 72 96 0.0 2.0 0.00 0.00 0.00 99 1017.9
20210622045547 72 255 0.0 2.0 0.00 0.00 0.00 99 1018.1
20210622045046 72 254 0.0 2.0 0.00 0.00 0.00 99 1018.2
20210622044548 72 227 0.0 2.0 0.00 0.00 0.00 99 1018.3
20210622044041 72 233 0.0 2.0 0.00 0.00 0.00 99 1018.4
20210622043544 72 233 0.0 2.0 0.00 0.00 0.00 99 1018.4
20210622043041 72 47 0.0 1.0 0.00 0.00 0.00 99 1018.6
20210622042543 72 47 0.0 1.0 0.00 0.00 0.00 99 1018.5
20210622042040 71 46 0.0 1.0 0.00 0.00 0.00 99 1018.5
20210622041542 71 46 0.0 1.0 0.00 0.00 0.00 99 1018.6
20210622041045 72 46 0.0 2.0 0.00 0.00 0.00 99 1018.8
20210622040544 71 46 0.0 2.0 0.00 0.00 0.00 99 1018.8
20210622040056 71 46 0.0 2.0 0.00 0.00 0.00 99 1018.8
20210622035539 71 219 0.0 2.0 0.00 0.00 0.00 99 1019.0
20210622035033 71 219 0.0 1.0 0.00 0.00 0.00 99 1018.9
20210622034527 71 219 0.0 1.0 0.00 0.00 0.00 99 1018.9
20210622034021 71 219 0.0 1.0 0.00 0.00 0.00 99 1019.0
20210622033517 71 219 0.0 1.0 0.00 0.00 0.00 99 1019.0
20210622033009 71 219 0.0 1.0 0.00 0.00 0.00 99 1019.0
20210622032503 71 219 0.0 0.0 0.00 0.00 0.00 99 1019.1
20210622031959 71 219 0.0 0.0 0.00 0.00 0.00 99 1019.1
20210622031457 71 219 0.0 0.0 0.00 0.00 0.00 99 1019.1
20210622030957 71 219 0.0 0.0 0.00 0.00 0.00 99 1019.1
20210622030454 71 219 0.0 0.0 0.00 0.00 0.00 99 1018.8
20210622025951 71 219 0.0 0.0 0.00 0.00 0.00 99 1018.9
20210622025452 71 219 0.0 0.0 0.00 0.00 0.00 99 1018.9
20210622024954 71 219 0.0 1.0 0.00 0.00 0.00 99 1018.8
20210622024450 71 219 0.0 1.0 0.00 0.00 0.00 99 1018.7
20210622023950 71 219 0.0 0.0 0.00 0.00 0.00 99 1018.6
20210622023449 71 219 0.0 0.0 0.00 0.00 0.00 99 1018.6
20210622022952 71 219 0.0 0.0 0.00 0.00 0.00 99 1018.6
20210622022449 71 219 0.0 0.0 0.00 0.00 0.00 99 1018.7
20210622021952 71 219 0.0 0.0 0.00 0.00 0.00 99 1018.7
20210622021445 71 219 0.0 0.0 0.00 0.00 0.00 99 1018.7
20210622020946 71 219 0.0 0.0 0.00 0.00 0.00 99 1018.7
20210622020446 71 219 0.0 0.0 0.00 0.00 0.00 99 1018.7
20210622015946 71 219 0.0 0.0 0.00 0.00 0.00 99 1018.7
20210622015447 71 219 0.0 0.0 0.00 0.00 0.00 99 1018.7
20210622014946 71 219 0.0 0.0 0.00 0.00 0.00 99 1018.6
20210622014448 71 219 0.0 0.0 0.00 0.00 0.00 99 1018.6
20210622013945 71 219 0.0 1.0 0.00 0.00 0.00 99 1018.6
20210622013448 71 219 0.0 1.0 0.00 0.00 0.00 99 1018.4
20210622012947 71 219 0.0 2.0 0.00 0.00 0.00 98 1018.4
20210622012447 71 219 1.0 2.0 0.00 0.00 0.00 98 1018.4
20210622011946 71 215 0.0 2.0 0.00 0.00 0.00 98 1018.4
20210622011446 71 229 0.0 2.0 0.00 0.00 0.00 98 1018.3
20210622010949 71 229 0.0 2.0 0.00 0.00 0.00 98 1018.0
20210622010445 71 225 0.0 1.0 0.00 0.00 0.00 98 1017.9
20210622005948 71 225 0.0 0.0 0.00 0.00 0.00 98 1017.9
20210622005447 71 225 0.0 2.0 0.00 0.00 0.00 98 1017.9
20210622004947 71 225 0.0 2.0 0.00 0.00 0.00 98 1017.8
20210622004445 71 223 0.0 2.0 0.00 0.00 0.00 98 1017.7
20210622003945 72 223 0.0 2.0 0.00 0.00 0.00 98 1017.7
20210622003445 72 223 0.0 2.0 0.00 0.00 0.00 98 1017.5
20210622002944 72 223 0.0 2.0 0.00 0.00 0.00 98 1017.5
20210622002446 72 226 0.0 2.0 0.00 0.00 0.00 98 1017.5
20210622001945 72 229 0.0 2.0 0.00 0.00 0.00 98 1017.5
20210622001445 72 229 0.0 1.0 0.00 0.00 0.00 98 1017.5
20210622000944 72 229 0.0 2.0 0.00 0.00 0.00 98 1017.4
20210622000443 72 229 0.0 2.0 0.00 0.00 0.00 98 1017.4
20210621235937 72 229 0.0 1.0 0.00 0.00 0.00 98 1017.2
20210621235432 72 229 0.0 1.0 0.00 0.00 0.00 98 1017.3
20210621234926 72 229 0.0 1.0 0.00 0.00 0.00 98 1017.3
20210621234421 72 229 0.0 1.0 0.00 0.00 0.00 98 1017.3
20210621233915 72 229 0.0 2.0 0.00 0.00 0.00 98 1017.4
20210621233410 72 229 0.0 2.0 0.00 0.00 0.00 98 1017.4
20210621232903 72 345 0.0 2.0 0.00 0.00 0.00 98 1017.3
20210621232357 72 346 0.0 2.0 0.00 0.00 0.00 98 1017.3
20210621231852 72 346 0.0 2.0 0.00 0.00 0.00 98 1017.3
20210621231346 72 346 0.0 2.0 0.00 0.00 0.00 98 1017.1
20210621230839 72 346 0.0 0.0 0.00 0.00 0.00 98 1017.2
20210621230332 72 346 0.0 0.0 0.00 0.00 0.00 98 1017.2
20210621225827 72 346 0.0 0.0 0.00 0.00 0.00 98 1017.2
20210621225321 72 346 0.0 1.0 0.00 0.00 0.00 98 1017.3
20210621224816 72 346 0.0 1.0 0.00 0.00 0.00 98 1017.3
20210621224310 72 349 0.0 1.0 0.00 0.00 0.00 98 1017.4
20210621223803 72 349 0.0 1.0 0.00 0.00 0.00 98 1017.5
20210621223257 72 349 0.0 0.0 0.00 0.00 0.00 98 1017.5
20210621222750 72 349 0.0 0.0 0.00 0.00 0.00 98 1017.6
20210621222245 72 349 0.0 0.0 0.00 0.00 0.00 99 1017.6
20210621221740 72 349 0.0 0.0 0.00 0.00 0.00 98 1017.8
20210621221234 72 349 0.0 0.0 0.00 0.00 0.00 98 1017.9
20210621220727 72 349 0.0 0.0 0.00 0.00 0.00 98 1017.8
20210621220221 72 349 0.0 0.0 0.00 0.00 0.00 98 1017.9
20210621215714 72 349 0.0 0.0 0.00 0.00 0.00 98 1018.0
20210621215210 72 349 0.0 0.0 0.00 0.00 0.00 98 1018.0
20210621214703 71 349 0.0 0.0 0.00 0.00 0.00 98 1018.0
20210621214157 71 349 0.0 0.0 0.00 0.00 0.00 98 1018.1
20210621213651 71 349 0.0 0.0 0.00 0.00 0.00 98 1018.2
20210621213145 71 349 0.0 0.0 0.00 0.00 0.00 98 1018.3
20210621212639 71 349 0.0 1.0 0.00 0.00 0.00 98 1018.4
20210621212133 71 349 0.0 2.0 0.00 0.00 0.00 98 1018.4
20210621211630 71 349 0.0 2.0 0.00 0.00 0.00 98 1018.5
20210621210614 71 349 0.0 0.0 0.00 0.00 0.00 98 1018.7
20210621210115 71 349 0.0 0.0 0.00 0.00 0.00 98 1019.0
20210621205606 71 349 0.0 0.0 0.00 0.00 0.00 98 1019.1
20210621205056 71 349 0.0 0.0 0.00 0.00 0.00 98 1019.2
20210621204550 71 349 0.0 0.0 0.00 0.00 0.00 97 1019.2
20210621204044 71 349 0.0 1.0 0.00 0.00 0.00 97 1019.3
20210621203539 71 349 1.0 3.0 0.00 0.00 0.00 97 1019.2
20210621203032 72 349 1.0 6.0 0.00 0.00 0.00 97 1019.0
20210621202525 72 167 1.0 6.0 0.00 0.00 0.00 97 1019.1
20210621202021 73 114 2.0 5.0 0.00 0.00 0.00 98 1019.3
20210621201513 73 28 1.0 3.0 0.00 0.00 0.00 98 1019.2
20210621201008 73 89 1.0 2.0 0.00 0.00 0.00 98 1019.4
20210621200504 73 90 1.0 4.0 0.00 0.00 0.00 98 1018.7
20210621195955 73 348 1.0 4.0 0.00 0.00 0.00 98 1018.3
20210621195450 73 350 0.0 1.0 0.00 0.00 0.00 97 1018.2
20210621194944 73 350 1.0 1.0 0.00 0.00 0.00 97 1018.3
20210621194437 73 350 1.0 3.0 0.00 0.00 0.00 97 1018.2
20210621193931 73 350 1.0 3.0 0.00 0.00 0.00 97 1018.1
20210621193426 73 350 0.0 2.0 0.00 0.00 0.00 97 1018.3
20210621192923 73 350 0.0 0.0 0.00 0.00 0.00 97 1018.6
20210621192414 73 350 0.0 2.0 0.00 0.00 0.00 97 1018.6
20210621191909 73 350 1.0 2.0 0.00 0.00 0.00 97 1018.5
20210621191401 73 350 1.0 3.0 0.00 0.00 0.00 97 1018.6
20210621190855 73 350 2.0 4.0 0.00 0.00 0.00 97 1018.6
20210621190350 73 351 2.0 4.0 0.00 0.00 0.00 97 1018.6
20210621185843 73 344 0.0 3.0 0.00 0.00 0.00 97 1018.9
20210621185337 73 344 1.0 3.0 0.00 0.00 0.00 97 1019.1
20210621184831 73 344 1.0 3.0 0.00 0.00 0.00 96 1018.7
20210621184332 73 345 1.0 3.0 0.00 0.00 0.00 96 1018.7
20210621183817 73 342 1.0 3.0 0.00 0.00 0.00 96 1019.0
20210621183312 73 195 1.0 4.0 0.00 0.00 0.00 96 1019.0
20210621182805 73 344 1.0 4.0 0.00 0.00 0.00 96 1019.1
20210621182258 73 321 2.0 4.0 0.00 0.00 0.00 95 1019.5
20210621181753 74 145 2.0 4.0 0.00 0.00 0.00 95 1019.4
20210621181246 74 348 3.0 6.0 0.00 0.00 0.00 93 1018.9
20210621180742 74 344 3.0 6.0 0.00 0.00 0.00 92 1018.7